[[{"header":{"parameterUnit":"m.s-1","parameterCategory":1,"la1":30.2991,"la2":30.254,"lo1":-89.0895,"lo2":-89.0444,"dy":0.0017,"dx":0.0017,"nx":28,"ny":28,"refTime":"2024-12-14T09:00:00:Z","depth":0,"parameterNumber":2,"parameterNumberName":"U-component_of_WINDS"},"data":[0,0,0,0,0,0,0,0,0,0,0,0,0,0,0,0,0,0,0,0,0,0,0,0,0,0,0,0,0,0,0,0,0,0,0,0,0,0,0,0,0,0,0,0,0,0,0,0,0,0,0,0,0,0,0,0,0,0,-6.272,-6.2721,0,-6.2753,-6.2753,-6.2753,-6.2589,-6.2584,-6.2579,-6.2575,-6.2607,-6.2612,-6.2617,0,0,0,0,0,0,0,0,0,0,0,0,0,-6.2516,-6.252,-6.272,-6.2721,-6.2721,-6.2753,-6.2753,-6.2753,-6.259,-6.2584,-6.2578,-6.2573,-6.2605,-6.2611,-6.2618,0,0,0,0,0,0,0,0,0,0,0,0,0,-6.2582,-6.2522,-6.272,-6.2643,-6.2637,-6.2752,-6.2753,-6.2754,-6.2591,-6.2584,-6.2576,-6.257,-6.2603,-6.2611,-6.2619,-6.281,0,0,-6.2643,-6.2646,0,0,0,0,0,0,0,0,-6.2579,-6.259,-6.2654,-6.2649,-6.2642,-6.2659,-6.2692,-6.2772,-6.2593,-6.2608,-6.2575,-6.2566,-6.263,-6.2635,-6.2657,-6.2811,-6.2813,-6.2643,-6.2648,-6.2652,-6.2654,0,0,0,0,0,0,0,-6.2574,-6.2587,-6.2733,-6.2655,-6.2648,-6.2607,-6.2608,-6.2707,-6.2659,-6.2606,-6.2594,-6.2601,-6.2625,-6.265,-6.2656,-6.2813,-6.2643,-6.265,-6.2655,-6.2658,-6.3125,-6.3132,0,0,0,0,0,0,-6.258,-6.2585,-6.2732,-6.2734,-6.2592,-6.2616,-6.2618,-6.2661,-6.2657,-6.265,-6.2607,-6.2593,-6.264,-6.2647,-6.2657,-6.2879,-6.2652,-6.2659,-6.2664,-6.3117,-6.3126,-6.3135,0,0,0,0,0,0,-6.2576,-6.2595,-6.2731,-6.2656,-6.267,-6.2627,-6.2677,-6.2665,-6.2689,-6.2657,-6.2648,-6.2641,-6.2634,-6.2646,-6.2773,-6.2878,-6.2663,-6.267,-6.3108,-6.312,-6.3131,-6.3327,0,0,0,0,0,0,-6.2571,-6.2594,-6.2667,-6.2659,-6.2675,-6.2847,-6.2683,-6.2671,-6.2704,-6.2686,-6.2687,-6.268,-6.263,-6.2762,-6.2781,-6.2885,-6.2676,-6.3098,-6.3113,-6.3127,-6.3311,-6.3344,-6.3372,0,0,0,0,0,-6.2564,-6.2721,-6.2671,-6.269,-6.2765,-6.2853,-6.2862,-6.2802,-6.2713,-6.2785,-6.2764,-6.268,-6.2864,-6.2776,-6.2796,-6.2905,-6.3091,-6.3109,-6.3126,-6.3297,-6.3338,-6.3372,0,0,0,0,0,0,-6.2742,-6.2718,-6.2663,-6.2822,-6.2841,-6.2826,-6.2915,-6.2846,-6.2891,-6.2872,-6.2795,-6.2796,-6.2936,-6.2933,-6.2836,-6.3089,-6.2962,-6.2984,-6.3086,-6.3124,-6.3154,-6.3151,-6.2682,0,0,0,0,0,-6.28,-6.2874,-6.2849,-6.2992,-6.3004,-6.2959,-6.2995,-6.2947,-6.2963,-6.297,-6.2958,-6.2977,-6.3039,-6.3081,-6.3136,-6.331,-6.3307,-6.3395,-6.3425,-6.345,-6.347,-6.3561,-6.3599,-6.3191,-6.3191,-6.3191,0,0,-6.2919,-6.2916,-6.2967,-6.3028,-6.3036,-6.3115,-6.2966,-6.3055,-6.3112,-6.2983,-6.3102,-6.3095,-6.311,-6.3262,-6.3328,-6.3263,-6.3582,-6.3472,-6.3493,-6.3499,-6.3582,-6.3621,-6.3656,-6.3203,-6.3201,-6.3199,0,0,-6.3177,-6.3183,-6.3302,-6.3314,-6.3329,-6.3298,-6.3327,-6.3322,-6.3312,-6.343,-6.3335,-6.3402,-6.351,-6.3525,-6.3547,-6.3811,-6.3735,-6.3831,-6.3991,-6.408,-6.4112,-6.414,-6.4234,-6.4268,-6.3851,-6.3852,-6.3852,0,-6.3324,-6.3438,-6.3371,-6.3467,-6.3496,-6.3383,-6.3503,-6.3517,-6.3551,-6.3573,-6.3501,-6.3634,-6.3637,-6.3789,-6.3854,-6.3876,-6.3906,-6.383,-6.4113,-6.4141,-6.4166,-6.4254,-6.4289,-6.3863,-6.3862,-6.3861,-6.386,0,-6.3617,-6.3698,-6.3793,-6.3828,-6.3867,-6.3975,-6.3923,-6.3971,-6.392,-6.3896,-6.4018,-6.4017,-6.407,-6.4103,-6.4054,-6.4249,-6.4208,-6.4127,-6.3997,-6.4217,-6.4299,-6.4332,-6.388,-6.3876,-6.3872,-6.3869,0,0,-6.3987,-6.3984,-6.402,-6.4034,-6.4043,-6.4104,-6.4206,-6.4258,-6.4301,-6.4328,-6.4411,-6.4505,-6.4429,-6.4454,-6.4405,-6.4484,-6.4693,-6.4392,-6.4391,-6.4447,-6.4907,-6.4968,-6.5008,-6.4643,-6.4649,-6.4654,-6.4905,0,-6.4238,-6.4413,-6.4356,-6.4532,-6.4605,-6.45,-6.4588,-6.4604,-6.4585,-6.4644,-6.4622,-6.469,-6.4585,-6.4599,-6.4672,-6.4652,-6.4784,-6.4633,-6.4718,-6.4722,-6.4716,-6.5051,-6.5116,-6.5353,-6.4937,-6.4942,-6.4946,0,-6.4555,-6.4595,-6.4779,-6.4775,-6.4804,-6.4885,-6.4928,-6.4986,-6.5001,-6.4981,-6.501,-6.4945,-6.5044,-6.4916,-6.5051,-6.495,-6.4981,-6.4977,-6.4984,-6.4989,-6.4847,-6.5063,-6.5427,-6.5463,-6.4996,-6.4992,-6.4988,0,-6.4804,-6.4904,-6.5027,-6.5043,-6.5042,-6.5101,-6.5104,-6.5112,-6.5147,-6.5184,-6.5206,-6.5255,-6.5282,-6.5321,-6.527,-6.5182,-6.5413,-6.528,-6.5398,-6.54,-6.545,-6.5448,-6.5824,-6.5474,-6.5473,-6.5473,-6.5472,0,-6.509,-6.5207,-6.5139,-6.5215,-6.5342,-6.5275,-6.5403,-6.5393,-6.5402,-6.5473,-6.5385,-6.5454,-6.5383,-6.5445,-6.5407,-6.5524,-6.5537,-6.5523,-6.5511,-6.553,-6.5532,-6.5549,-6.5531,-6.5482,-6.548,-6.5478,-6.5476,0,-6.539,-6.5349,-6.5476,-6.5466,-6.5466,-6.556,-6.555,-6.5619,-6.5594,-6.5686,-6.5703,-6.5664,-6.5732,-6.5686,-6.5755,-6.5729,-6.5882,-6.5848,-6.5878,-6.5868,-6.5988,-6.5977,-6.6386,-6.6436,-6.6056,-6.606,-6.6063,0,-6.5574,-6.5661,-6.5661,-6.5702,-6.5711,-6.5779,-6.5814,-6.5752,-6.5793,-6.5817,-6.5883,-6.5944,-6.599,-6.6104,-6.6081,-6.6133,-6.6099,-6.6239,-6.6106,-6.6122,-6.6099,-6.6094,-6.6102,-6.6265,-6.627,-6.6273,-6.6276,0,-6.5905,-6.5881,-6.5935,-6.5984,-6.6029,-6.6064,-6.6091,-6.613,-6.6068,-6.6118,-6.6187,-6.6223,-6.6293,-6.6355,-6.6398,-6.6399,-6.6328,-6.6319,-6.6348,-6.6368,-6.6381,-6.6375,-6.5949,-6.6309,-6.6306,-6.6304,-6.6302,-6.63,-6.6151,-6.6224,-6.6235,-6.6298,-6.6313,-6.6341,-6.6405,-6.6389,-6.6445,-6.6498,-6.6458,-6.6541,-6.6553,-6.6604,-6.6615,-6.6678,-6.6621,-6.6664,-6.6675,-6.6686,-6.6703,-6.6373,-6.6686,-6.6685,-6.6684,-6.6683,-6.6683,0,-6.6476,-6.6479,-6.6538,-6.658,-6.663,-6.656,-6.6586,-6.6633,-6.6707,-6.6725,-6.6772,-6.6852,-6.6911,-6.6894,-6.6946,-6.7,-6.6969,-6.7016,-6.7011,-6.7012,-6.6751,-6.672,-6.7041,-6.7041,-6.7041,-6.7041,-6.7041,-6.7041,-6.6651,-6.677,-6.6748,-6.6872,-6.6873,-6.6954,-6.6975,-6.7,-6.7014,-6.7107,-6.7157,-6.7145,-6.7149,-6.7201,-6.7253,-6.7246,-6.7269,-6.7328,-6.731,-6.7066,-6.7031,-6.6997,-6.6967,-6.7334,-6.7335,-6.7564,-6.7566,-6.7568]},{"header":{"parameterUnit":"m.s-1","parameterCategory":1,"la1":30.2991,"la2":30.254,"lo1":-89.0895,"lo2":-89.0444,"dy":0.0017,"dx":0.0017,"nx":28,"ny":28,"refTime":"2024-12-14T09:00:00:Z","depth":0,"parameterNumber":3,"parameterNumberName":"V-component_of_WINDS"},"data":[0,0,0,0,0,0,0,0,0,0,0,0,0,0,0,0,0,0,0,0,0,0,0,0,0,0,0,0,0,0,0,0,0,0,0,0,0,0,0,0,0,0,0,0,0,0,0,0,0,0,0,0,0,0,0,0,0,0,-0.557,-0.5571,0,-0.5657,-0.5658,-0.5659,-0.5707,-0.5707,-0.5707,-0.5708,-0.5799,-0.5801,-0.5804,0,0,0,0,0,0,0,0,0,0,0,0,0,-0.5445,-0.5447,-0.557,-0.5571,-0.5572,-0.5657,-0.5658,-0.566,-0.5707,-0.5707,-0.5707,-0.5708,-0.5798,-0.5801,-0.5804,0,0,0,0,0,0,0,0,0,0,0,0,0,-0.5512,-0.5447,-0.557,-0.5606,-0.561,-0.5657,-0.5658,-0.566,-0.5707,-0.5707,-0.5708,-0.5708,-0.5797,-0.5801,-0.5804,-0.5822,0,0,-0.5815,-0.5816,0,0,0,0,0,0,0,0,-0.5508,-0.5517,-0.56,-0.5604,-0.5608,-0.5672,-0.5648,-0.5714,-0.5707,-0.567,-0.5708,-0.5708,-0.5757,-0.5763,-0.578,-0.5826,-0.583,-0.5815,-0.5817,-0.5819,-0.582,0,0,0,0,0,0,0,-0.5504,-0.5513,-0.5605,-0.5601,-0.5606,-0.5618,-0.5628,-0.5661,-0.5712,-0.5674,-0.5677,-0.5687,-0.5759,-0.5776,-0.5782,-0.5832,-0.5815,-0.5818,-0.582,-0.5822,-0.5896,-0.5896,0,0,0,0,0,0,-0.5493,-0.5509,-0.5602,-0.5607,-0.5558,-0.562,-0.5631,-0.5651,-0.5711,-0.5721,-0.5687,-0.5689,-0.577,-0.5778,-0.5785,-0.5809,-0.5819,-0.5822,-0.5824,-0.5896,-0.5896,-0.5896,0,0,0,0,0,0,-0.549,-0.5501,-0.5598,-0.5559,-0.5573,-0.5622,-0.5644,-0.5653,-0.567,-0.5721,-0.5731,-0.5695,-0.577,-0.5781,-0.5812,-0.5813,-0.5824,-0.5827,-0.5896,-0.5896,-0.5896,-0.5858,0,0,0,0,0,0,-0.5486,-0.55,-0.5507,-0.5559,-0.5574,-0.5623,-0.5644,-0.5654,-0.5675,-0.5679,-0.5731,-0.574,-0.5771,-0.5807,-0.5816,-0.5818,-0.583,-0.5896,-0.5896,-0.5896,-0.5859,-0.5856,-0.5854,0,0,0,0,0,-0.5482,-0.5494,-0.5507,-0.5518,-0.5585,-0.5623,-0.5632,-0.5668,-0.5675,-0.5683,-0.5716,-0.5738,-0.5811,-0.5809,-0.582,-0.5824,-0.5897,-0.5896,-0.5896,-0.586,-0.5857,-0.5854,0,0,0,0,0,0,-0.5442,-0.5501,-0.5517,-0.5546,-0.5579,-0.5631,-0.5642,-0.5663,-0.5695,-0.5698,-0.5741,-0.5752,-0.5779,-0.5805,-0.5801,-0.5843,-0.5856,-0.5858,-0.5826,-0.5823,-0.582,-0.5813,-0.5832,0,0,0,0,0,-0.5436,-0.5462,-0.5513,-0.5534,-0.5549,-0.5592,-0.5611,-0.5635,-0.5671,-0.5686,-0.5721,-0.5756,-0.5787,-0.5806,-0.5838,-0.5863,-0.5874,-0.587,-0.5868,-0.5865,-0.5866,-0.588,-0.5879,-0.5895,-0.5895,-0.5895,0,0,-0.5425,-0.5461,-0.5475,-0.5526,-0.5555,-0.5581,-0.5604,-0.5631,-0.5651,-0.569,-0.5722,-0.5748,-0.579,-0.5818,-0.5832,-0.584,-0.5864,-0.5865,-0.5863,-0.5865,-0.588,-0.5878,-0.5877,-0.5895,-0.5895,-0.5895,0,0,-0.5418,-0.5448,-0.5468,-0.5495,-0.5537,-0.5566,-0.557,-0.5619,-0.5638,-0.567,-0.57,-0.5724,-0.5776,-0.5804,-0.5825,-0.5826,-0.5847,-0.5835,-0.5821,-0.5834,-0.5833,-0.5832,-0.5831,-0.583,-0.5836,-0.5836,-0.5836,0,-0.5399,-0.5439,-0.5475,-0.55,-0.5521,-0.5557,-0.5576,-0.5602,-0.5652,-0.5666,-0.5674,-0.5739,-0.577,-0.5804,-0.5804,-0.582,-0.5826,-0.5829,-0.583,-0.5829,-0.5829,-0.5829,-0.5829,-0.5834,-0.5834,-0.5834,-0.5835,0,-0.5414,-0.544,-0.5451,-0.5498,-0.552,-0.5542,-0.5581,-0.56,-0.5621,-0.5649,-0.568,-0.5718,-0.5756,-0.5766,-0.5789,-0.5803,-0.5807,-0.5822,-0.5836,-0.5825,-0.5825,-0.5826,-0.5831,-0.5832,-0.5832,-0.5833,0,0,-0.5386,-0.545,-0.5453,-0.5474,-0.5522,-0.5543,-0.5566,-0.5603,-0.5617,-0.5651,-0.5671,-0.5713,-0.5726,-0.575,-0.5776,-0.5787,-0.5783,-0.5801,-0.5802,-0.5795,-0.5801,-0.5789,-0.5788,-0.5798,-0.5798,-0.5798,-0.5797,0,-0.5385,-0.5428,-0.546,-0.549,-0.5515,-0.5547,-0.5567,-0.5599,-0.5624,-0.5649,-0.5678,-0.5707,-0.5723,-0.5737,-0.575,-0.5781,-0.5785,-0.5782,-0.5817,-0.5818,-0.5805,-0.5789,-0.5777,-0.5774,-0.5797,-0.5798,-0.5798,0,-0.5391,-0.5421,-0.5453,-0.5497,-0.5508,-0.5526,-0.5561,-0.5584,-0.562,-0.5637,-0.5662,-0.5688,-0.5713,-0.5724,-0.576,-0.5757,-0.5773,-0.579,-0.5791,-0.5795,-0.5807,-0.5792,-0.5774,-0.5773,-0.5798,-0.5798,-0.5798,0,-0.5366,-0.5415,-0.544,-0.5457,-0.5508,-0.5519,-0.5541,-0.5577,-0.5597,-0.5627,-0.564,-0.5674,-0.5692,-0.5717,-0.5751,-0.5756,-0.5782,-0.5797,-0.5797,-0.5796,-0.5802,-0.5801,-0.5785,-0.5813,-0.5813,-0.5813,-0.5813,0,-0.5363,-0.5381,-0.5429,-0.5445,-0.5466,-0.5502,-0.5522,-0.5547,-0.5578,-0.5598,-0.5629,-0.5648,-0.5691,-0.5715,-0.5742,-0.5766,-0.5775,-0.5789,-0.5796,-0.5786,-0.5784,-0.5797,-0.5798,-0.5813,-0.5813,-0.5813,-0.5813,0,-0.5339,-0.5372,-0.5402,-0.5447,-0.5459,-0.5472,-0.5511,-0.5527,-0.5553,-0.5578,-0.5587,-0.5628,-0.5658,-0.5693,-0.5735,-0.5753,-0.5774,-0.5785,-0.5762,-0.5766,-0.5764,-0.5763,-0.5756,-0.5756,-0.5784,-0.5783,-0.5783,0,-0.5335,-0.5349,-0.5395,-0.541,-0.5431,-0.5455,-0.5474,-0.551,-0.5529,-0.5569,-0.558,-0.5611,-0.5638,-0.5684,-0.5718,-0.5749,-0.5761,-0.5756,-0.5766,-0.5755,-0.5759,-0.5758,-0.5759,-0.5753,-0.5753,-0.5752,-0.5752,0,-0.5323,-0.5337,-0.5363,-0.5394,-0.5415,-0.5442,-0.547,-0.548,-0.5522,-0.5541,-0.557,-0.5591,-0.5632,-0.5662,-0.5698,-0.5721,-0.5743,-0.5748,-0.575,-0.574,-0.5725,-0.5732,-0.5754,-0.5748,-0.5749,-0.5749,-0.5749,-0.5749,-0.5308,-0.5322,-0.5355,-0.5382,-0.5406,-0.5431,-0.5447,-0.5474,-0.5499,-0.5534,-0.5554,-0.5582,-0.5616,-0.5666,-0.5688,-0.5711,-0.5719,-0.5722,-0.5722,-0.5722,-0.5718,-0.5721,-0.5717,-0.5718,-0.5718,-0.5718,-0.5718,0,-0.5297,-0.5319,-0.5344,-0.538,-0.5401,-0.5418,-0.5449,-0.5466,-0.549,-0.5519,-0.5544,-0.5577,-0.5606,-0.5641,-0.5673,-0.5684,-0.5695,-0.5691,-0.5691,-0.5695,-0.571,-0.5705,-0.5682,-0.5682,-0.5682,-0.5682,-0.5682,-0.5682,-0.5294,-0.5317,-0.5335,-0.537,-0.5392,-0.5419,-0.5435,-0.5458,-0.5481,-0.5515,-0.5539,-0.5561,-0.5593,-0.5626,-0.5653,-0.5663,-0.5673,-0.5666,-0.5678,-0.5691,-0.5695,-0.5698,-0.5693,-0.5668,-0.5668,-0.5662,-0.5661,-0.5661]}]]